Mitchell, SD

2:05 AM CST on December 15, 2019 (GMT -0600)
Mitchell Municipal

Weather History for KMHE - November, 2019

Change the Weather History Date:

Friday, November 22, 2019

  Actual Average Record
Temperature  
Mean Temperature 30 °F 30 °F  
Max Temperature 44 °F 40 °F 67 °F (2006)
Min Temperature 15 °F 20 °F -7 °F (1929)
Degree Days  
Heating Degree Days 35 35  
Month to date heating degree days 683 628  
Since 1 July heating degree days 1362 1269  
Cooling Degree Days 0 0  
Month to date cooling degree days 0 0  
Year to date cooling degree days 937 824  
Moisture  
Dew Point 18 °F    
Average Humidity 58    
Maximum Humidity 84    
Minimum Humidity 31    
Precipitation  
Precipitation 0.00 in 0.02 in 0.75 in (1963)
Month to date precipitation 0.12 0.64  
Year to date precipitation 34.12 20.93  
Snow  
Snow 0.00 in - 6.00 in (1909)
Month to date snowfall 0.6  
Since 1 July snowfall 0.6  
Since 1 September snowfall 0.6  
Snow Depth 0.00 in    
Sea Level Pressure  
Sea Level Pressure 30.17 in    
Wind  
Wind Speed 9 mph (SSW)    
Max Wind Speed 18 mph    
Max Gust Speed 26 mph    
Visibility 10 miles    
Events      
T = Trace of Precipitation, MM = Missing Value Source: NWS Daily Summary

Daily Weather History Graph

Daily Weather History Graph

Search for Another Location

Airport or City:

Astronomy

Nov. 22, 2019 Rise Set
Actual Time 7:35 AM CST 5:00 PM CST
Civil Twilight 7:03 AM CST 5:32 PM CST
Nautical Twilight 6:28 AM CST 6:07 PM CST
Astronomical Twilight 5:54 AM CST 6:41 PM CST
Moon 2:30 AM CST (11/22) 3:12 PM CST (11/22)
Length of Visible Light 10h 28m
Length of Day
9h 25m
Waning Crescent, 19% of the Moon is Illuminated
Nov 22
Waning Crescent
Nov 26
New
Dec 4
First Quarter
Dec 11
Full
Dec 18
Last Quarter

Hourly Weather History & Observations

Time (CST) Temp. Windchill Dew Point Humidity Pressure Visibility Wind Dir Wind Speed Gust Speed Precip Events Conditions
12:53 AM 19.0 °F 13.9 °F 15.1 °F 85% 30.34 in 10.0 mi West 3.5 mph - N/A   Clear
1:53 AM 18.0 °F 9.8 °F 12.9 °F 81% 30.33 in 10.0 mi West 5.8 mph - N/A   Clear
2:53 AM 19.0 °F 11.1 °F 14.0 °F 81% 30.33 in 10.0 mi WSW 5.8 mph - N/A   Clear
3:53 AM 19.0 °F 11.1 °F 14.0 °F 81% 30.32 in 10.0 mi WSW 5.8 mph - N/A   Clear
4:53 AM 19.0 °F - 14.0 °F 81% 30.31 in 10.0 mi Calm Calm - N/A   Clear
5:53 AM 19.0 °F 13.9 °F 15.1 °F 85% 30.31 in 10.0 mi SSW 3.5 mph - N/A   Clear
6:53 AM 18.0 °F - 14.0 °F 84% 30.30 in 10.0 mi Calm Calm - N/A   Clear
7:53 AM 17.1 °F 10.0 °F 12.9 °F 84% 30.29 in 10.0 mi South 4.6 mph - N/A   Clear
8:53 AM 23.0 °F 15.8 °F 18.0 °F 81% 30.28 in 10.0 mi SSW 5.8 mph - N/A   Clear
9:53 AM 28.0 °F 24.2 °F 21.0 °F 75% 30.26 in 10.0 mi SSW 3.5 mph - N/A   Clear
10:53 AM 32.0 °F 23.6 °F 23.0 °F 69% 30.26 in 10.0 mi SSW 10.4 mph - N/A   Clear
11:53 AM 36.0 °F 27.5 °F 21.0 °F 55% 30.23 in 10.0 mi South 12.7 mph - N/A   Clear
12:53 PM 39.9 °F 33.4 °F 19.0 °F 43% 30.18 in 10.0 mi SSW 10.4 mph - N/A   Clear
1:53 PM 43.0 °F 36.4 °F 18.0 °F 37% 30.13 in 10.0 mi SSW 12.7 mph - N/A   Clear
2:53 PM 44.1 °F 38.1 °F 16.0 °F 32% 30.10 in 10.0 mi SSW 11.5 mph - N/A   Clear
3:53 PM 42.1 °F 35.7 °F 18.0 °F 38% 30.09 in 10.0 mi South 11.5 mph - N/A   Clear
4:53 PM 39.0 °F 32.8 °F 19.9 °F 46% 30.07 in 10.0 mi South 9.2 mph - N/A   Clear
5:53 PM 33.1 °F 25.5 °F 21.0 °F 61% 30.06 in 10.0 mi South 9.2 mph - N/A   Clear
6:53 PM 34.0 °F 25.0 °F 19.9 °F 56% 30.04 in 10.0 mi South 12.7 mph - N/A   Clear
7:53 PM 34.0 °F 23.8 °F 18.0 °F 52% 30.01 in 10.0 mi SSW 16.1 mph - N/A   Clear
8:53 PM 33.1 °F 22.6 °F 19.0 °F 56% 29.99 in 10.0 mi SSW 16.1 mph 23.0 mph N/A   Clear
9:53 PM 32.0 °F 22.1 °F 19.0 °F 59% 29.98 in 10.0 mi SSW 13.8 mph - N/A   Clear
10:53 PM 32.0 °F 23.0 °F 19.0 °F 59% 29.94 in 10.0 mi SSW 11.5 mph - N/A   Clear
11:53 PM 30.9 °F 21.7 °F 19.9 °F 64% 29.94 in 10.0 mi SSW 11.5 mph - N/A   Clear